Regional Weather Roundup
Issued by NWS

Home | Current Version | Previous Version | Graphics & Text | Print | Product List | Glossary On
Versions: 1 2 3 4 5 6 7 8 9 10 11 12 13 14 15 16 17 18 19 20 21 22 23 24 25 26 27 28 29 30 31 32 33 34 35 36 37 38 39 40 41 42 43 44 45 46 47 48 49 50
000
ASUS43 KLOT 251208
RWRIL

ILLINOIS REGIONAL WEATHER ROUNDUP
NATIONAL WEATHER SERVICE CHICAGO/ROMEOVILLE IL
700 AM CDT MON MAY 25 2015

NOTE: "FAIR" INDICATES FEW OR NO CLOUDS BELOW 12,000 FEET WITH NO
SIGNIFICANT WEATHER AND/OR OBSTRUCTIONS TO VISIBILITY.

* THESE STATIONS ARE NOT UNDER NWS QUALITY CONTROL. THEY ALSO MAY NOT
  REPORT WEATHER SUCH AS PRECIPITATION OR FOG.

ILZ001-002-007-009-015-016-024-251300-
NORTHWEST ILLINOIS

CITY           SKY/WX    TMP DP  RH WIND       PRES   REMARKS
MOLINE         CLOUDY    65  62  90 SW10      29.81R
6HR MIN TEMP:  65; 6HR MAX TEMP:  69; 6HR PCP:  0.03;

STERLING*      CLOUDY    66  63  88 SW8       29.81R
SAVANNA*       CLOUDY    66  63  89 SW10G16   29.79R
$$

ILZ003-004-008-010-011-017-018-251300-
NORTH CENTRAL ILLINOIS

CITY           SKY/WX    TMP DP  RH WIND       PRES   REMARKS
ROCKFORD       LGT RAIN  67  64  90 S18G25    29.81R FOG
6HR MIN TEMP:  67; 6HR MAX TEMP:  68; 6HR PCP:  0.40;

FREEPORT*      CLOUDY    65  63  92 SW10G22   29.80R
ROCHELLE*      RAIN      66  65  94 S21G26    29.81S
DE KALB*       RAIN      64  63  94 S22G31    29.83S
PERU*          CLOUDY    69  64  84 S17G23    29.83R
$$

ILZ005-006-012>014-019>023-251300-
NORTHEAST ILLINOIS

CITY           SKY/WX    TMP DP  RH WIND       PRES   REMARKS
CHICAGO-OHARE  CLOUDY    70  62  76 S21G28    29.84R
6HR MIN TEMP:  70; 6HR MAX TEMP:  73;

CHICAGO-MIDWAY CLOUDY    72  65  78 S14G28    29.85F
6HR MIN TEMP:  72; 6HR MAX TEMP:  76; 6HR PCP: TRACE;

AURORA         CLOUDY    69  62  78 S18       29.84R
6HR MIN TEMP:  67; 6HR MAX TEMP:  73; 6HR PCP: TRACE;

LANSING*       CLOUDY    70  63  76 S17G24    29.88F
JOLIET*        CLOUDY    72  66  82 S16G24    29.86S
WAUKEGAN       CLOUDY    70  62  76 S20G30    29.82S
6HR MIN TEMP:  66; 6HR MAX TEMP:  71;

DUPAGE AIRPORT CLOUDY    69  63  81 S22G32    29.83S
6HR MIN TEMP:  67; 6HR MAX TEMP:  73; 6HR PCP: TRACE;

KANKAKEE*      CLOUDY    69  66  90 S15       29.90S
WHEELING       CLOUDY    71  62  73 S17G31    29.85S
6HR MIN TEMP:  68; 6HR MAX TEMP:  73;

MORRIS*        CLOUDY    70  64  82 S18G28    29.84S
ROMEOVILLE*    CLOUDY    69  63  81 SW22G33   29.85S
NORTHERLY ISL    N/A     70  63  78 S17         N/A
$$

LMZ740>746-251300-
SOUTHERN LAKE MICHIGAN

STATION/POSITION SKY/WX   TEMP    WIND        PRES    VSBY  WAVE
                          AIR SEA DIR/SP/G                  HT/PER
                          (F)     (DEG/KT/KT) (MB)    (MI)  (FT/S)
SOUTHERN BUOY              48 38  170/ 14/ 14 1011.5R         2/ 3
HARRISON CRIB              69     190/ 29/ 33   N/A
BURNHAM HARBOR             70     180/  8/ 21   N/A
CALUMET HARBOR             71     180/ 15/ 21   N/A
BURNS HARBOR               71     180/ 12/ 18 1012.5S
MICHIGAN CITY              72     160/ 14/ 20   N/A
MICHIGAN CITY 6N           66 52  200/ 14/ 19   N/A           1/ 2
ST. JOSEPH                 66 54  210/ 16/ 19   N/A           2/ 3
$$

ILZ025>027-034>036-040-047-049-050-058-095>099-251300-
WEST-CENTRAL ILLINOIS

CITY           SKY/WX    TMP DP  RH WIND       PRES   REMARKS
QUINCY         CLOUDY    64  62  93 W10       29.89R
GALESBURG*     RAIN      64  63  96 SW12      29.85R
MACOMB*        LGT RAIN  65  64  97 SW12      29.87R
JACKSONVILLE*  PTSUNNY   69  65  88 SW15G22   29.89R
PITTSFIELD*    DRIZZLE   66  63  90 SW12      29.90R
$$

ILZ028>032-037-038-041>044-048-051>054-059>061-251300-
CENTRAL ILLINOIS

CITY           SKY/WX    TMP DP  RH WIND       PRES   REMARKS
PONTIAC        PTSUNNY   71  66  85 S20G26    29.88S
BLOOMINGTON    CLOUDY    69  67  93 S22G29    29.90R
DECATUR        CLOUDY    70  65  84 S16G24    29.92R
PEORIA         PTSUNNY   68  64  87 SW13      29.86R
6HR MIN TEMP:  68; 6HR MAX TEMP:  72; 6HR PCP:  0.13;

LACON*         LGT RAIN  67  64  92 SW12G20   29.83R
LINCOLN*       HVY RAIN  70  65  84 S16G23    29.86S
SPRINGFIELD    PTSUNNY   70  65  84 S17G26    29.88S
6HR MIN TEMP:  68; 6HR MAX TEMP:  70; 6HR PCP: TRACE;

TAYLORVILLE    PTSUNNY   68  64  88 S17G24    29.92R
$$

ILZ033-039-045-046-055>057-062-063-251300-
EAST-CENTRAL ILLINOIS

CITY           SKY/WX    TMP DP  RH WIND       PRES   REMARKS
CHAMPAIGN      CLOUDY    70  65  84 S20G29    29.93R
DANVILLE*      LGT RAIN  68  66  91 S17G25    29.93R
RANTOUL*       CLOUDY    72  66  82 S20G26    29.93R
MATTOON        CLOUDY    69  66  90 S16G26    29.96R
PARIS*         CLOUDY    69  66  91 S20G25    29.99R
$$

ILZ079-100>102-251300-
SOUTHWEST ILLINOIS

CITY           SKY/WX    TMP DP  RH WIND       PRES   REMARKS
ALTON          CLOUDY    70  70 100 S13       29.94R
BELLEVILLE     MOSUNNY   70  70  99 S16       29.95R
CAHOKIA*       PTSUNNY   71  65  81 SW7       29.96R
SPARTA*        CLOUDY    69  66  92 S9G16     29.99R
$$

ILZ064>066-069>071-074>076-080>082-084>086-088>090-092>094-251300-
SOUTH-CENTRAL ILLINOIS

CITY           SKY/WX    TMP DP  RH WIND       PRES   REMARKS
CARBONDALE     CLOUDY    69  66  90 S13       30.02R
6HR MIN TEMP:  69; 6HR MAX TEMP:  70; 6HR PCP:  0.05;

CAIRO*         CLOUDY    67  67  98 S7        30.05R
EFFINGHAM*     CLOUDY    69  65  88 S9G18     30.00R
MARION         CLOUDY    70  66  88 S9        30.03R
MT. VERNON     CLOUDY    70  63  78 S16G24    30.01R
CENTRALIA*     CLOUDY    68  65  91 S15       29.99R
SALEM*         CLOUDY    71  67  86 S14G21    29.99R
METROPOLIS*    LGT RAIN  68  68 100 S6        30.05R
$$

ILZ067-068-072-073-078-083-087-091-251300-
SOUTHEAST ILLINOIS

CITY           SKY/WX    TMP DP  RH WIND       PRES   REMARKS
LAWRENCEVILLE  LGT RAIN  68  66  93 S17       30.03S
FLORA*         CLOUDY    68  66  92 S14       30.01R
FAIRFIELD*     CLOUDY    68  67  95 S13G18    30.01R
HARRISBURG*    DRIZZLE   68  68  98 S14       30.04S
ROBINSON*      DRIZZLE   68  66  93 S16G25    30.02S
CARMI*         LGT RAIN  68  63  83 S14G20    30.03S
$$

ABBREVIATIONS USED IN REMARKS
   TC - TEMPERATURE IN CELSIUS
  WCI - WIND CHILL INDEX
   HX - HEAT INDEX
  VSB - VISIBILITY
$$



USA.gov is the U.S. government's official web portal to all federal, state and local government web resources and services.